Date String (YYYY-MM-DD hh:mm:ss) UTC,Instrument flags,Ambient pressure (hPa),Sample flow (lpm),Bypass flow (lpm),Sample temperature (°C),Ambient temperature (°C),ASC tube jacket temperature (°C),LED temperature (°C),Box temperature (°C),Sample RH (%),Mass concentration (μg/m³),Mass concentration (μg/m³)
DateTimeUTC,F1_M11,P_M11,Q1_M11,Q2_M11,T1_M11,T2_M11,T3_M11,T4_M11,T5_M11,U1_M11,X0_M11,X2_M11
2021-08-18 23:00:00,,0822.6,5.00,0.00,28.7,26.4,00.0,37.8,30.4,23.5,0027.62,0018.58
2021-08-18 23:01:00,,0822.6,5.01,0.00,28.7,26.8,00.0,37.8,30.5,23.6,0027.56,0018.48
2021-08-18 23:02:00,,0822.6,5.01,0.00,28.8,27.2,00.0,37.8,30.6,23.7,0027.97,0018.35
2021-08-18 23:03:00,,0822.6,4.98,0.00,28.9,27.5,00.0,37.8,30.8,23.7,0027.83,0018.22
2021-08-18 23:04:00,,0822.6,5.00,0.00,28.9,27.9,00.0,37.8,30.9,24.1,0027.47,0018.04
2021-08-18 23:05:00,,0822.5,5.01,0.00,29.0,27.3,00.0,37.8,30.7,23.9,0026.86,0017.82
2021-08-18 23:06:00,,0822.6,5.00,0.00,28.8,25.8,00.0,37.8,30.2,24.1,0026.58,0017.62
2021-08-18 23:07:00,,0822.6,4.99,0.00,28.7,25.7,00.0,37.8,30.2,24.7,0025.81,0017.36
2021-08-18 23:08:00,,0822.6,5.00,0.00,28.7,26.2,00.0,37.8,30.3,24.4,0024.48,0017.05
2021-08-18 23:09:00,,0822.6,5.00,0.00,28.7,26.6,00.0,37.8,30.5,24.2,0024.05,0016.71
2021-08-18 23:10:00,,0822.5,5.01,0.00,28.8,27.0,00.0,37.8,30.6,23.9,0024.70,0016.38
2021-08-18 23:11:00,,0822.6,5.00,0.00,28.8,27.4,00.0,37.8,30.8,23.8,0024.33,0016.01
2021-08-18 23:12:00,,0822.6,5.00,0.00,28.9,27.7,00.0,37.8,30.9,23.7,0024.00,0015.78
2021-08-18 23:13:00,,0822.6,5.00,0.00,29.0,28.0,00.0,37.9,31.0,23.6,0023.72,0015.66
2021-08-18 23:14:00,,0822.6,5.00,0.00,29.1,27.6,00.0,37.9,30.9,23.8,0024.81,0015.43
2021-08-18 23:15:00,,0822.6,5.01,0.00,28.9,26.0,00.0,37.9,30.4,24.1,0024.94,0015.30
2021-08-18 23:16:00,,0822.6,5.00,0.00,28.8,25.7,00.0,37.9,30.3,23.9,0024.65,0015.12
2021-08-18 23:17:00,,0822.6,5.00,0.00,28.8,26.2,00.0,37.9,30.4,23.7,0024.65,0014.99
2021-08-18 23:18:00,,0822.6,5.01,0.00,28.8,26.7,00.0,37.9,30.5,23.6,0024.55,0014.87
2021-08-18 23:19:00,,0822.6,4.99,0.00,28.9,27.1,00.0,37.9,30.7,23.6,0024.53,0014.80
2021-08-18 23:20:00,,0822.6,5.00,0.00,28.9,27.5,00.0,37.9,30.8,23.5,0024.77,0014.71
2021-08-18 23:21:00,,0822.6,5.00,0.00,29.0,27.8,00.0,37.9,31.0,23.4,0023.72,0014.62
2021-08-18 23:22:00,,0822.5,5.01,0.00,29.1,28.0,00.0,37.9,31.0,23.3,0023.98,0014.54
2021-08-18 23:23:00,,0822.5,4.99,0.00,29.0,26.7,00.0,37.9,30.7,23.1,0024.28,0014.47
2021-08-18 23:24:00,,0822.6,5.01,0.00,28.9,25.6,00.0,37.9,30.3,23.3,0023.82,0014.33
2021-08-18 23:25:00,,0822.5,4.99,0.00,28.8,25.9,00.0,37.9,30.3,23.6,0022.19,0014.25
2021-08-18 23:26:00,,0822.5,5.00,0.00,28.8,26.4,00.0,37.9,30.5,23.6,0022.30,0014.18
2021-08-18 23:27:00,,0822.5,5.01,0.00,28.8,26.8,00.0,37.9,30.6,23.6,0022.65,0014.18
2021-08-18 23:28:00,,0822.5,4.99,0.00,28.9,27.2,00.0,37.9,30.7,23.6,0023.04,0014.07
2021-08-18 23:29:00,,0822.6,5.00,0.00,29.0,27.6,00.0,37.9,30.9,23.8,0023.96,0014.02
2021-08-18 23:30:00,,0822.5,5.00,0.00,29.0,27.8,00.0,37.9,30.9,23.7,0023.99,0013.99
2021-08-18 23:31:00,,0822.4,5.00,0.00,29.0,26.6,00.0,37.9,30.5,23.5,0023.82,0013.97
2021-08-18 23:32:00,,0822.4,5.00,0.00,28.8,25.5,00.0,37.9,30.2,23.8,0023.86,0014.00
2021-08-18 23:33:00,,0822.4,4.99,0.00,28.8,25.8,00.0,37.9,30.3,24.0,0023.83,0014.02
2021-08-18 23:34:00,,0822.4,5.00,0.00,28.8,26.2,00.0,37.9,30.4,23.5,0023.96,0014.00
2021-08-18 23:35:00,,0822.4,5.00,0.00,28.8,26.7,00.0,37.9,30.5,23.7,0024.09,0014.02
2021-08-18 23:36:00,,0822.4,5.00,0.00,28.8,27.1,00.0,37.9,30.7,23.9,0023.94,0014.02
2021-08-18 23:37:00,,0822.4,4.99,0.00,28.9,27.5,00.0,37.9,30.8,23.9,0023.38,0014.00
2021-08-18 23:38:00,,0822.4,5.00,0.00,29.0,27.8,00.0,37.9,30.9,23.4,0023.11,0013.94
2021-08-18 23:39:00,,0822.4,4.99,0.00,29.1,28.0,00.0,37.9,31.0,23.8,0022.25,0013.96
2021-08-18 23:40:00,,0822.4,5.01,0.00,29.0,26.8,00.0,37.9,30.6,23.6,0021.06,0013.91
2021-08-18 23:41:00,,0822.4,5.00,0.00,28.9,25.6,00.0,37.9,30.2,23.5,0020.84,0013.90
2021-08-18 23:42:00,,0822.4,4.99,0.00,28.8,25.9,00.0,37.9,30.3,23.6,0020.53,0013.90
2021-08-18 23:43:00,,0822.4,5.01,0.00,28.8,26.3,00.0,37.9,30.5,24.0,0020.26,0013.87
2021-08-18 23:44:00,,0822.4,5.00,0.00,28.8,26.7,00.0,37.9,30.5,24.0,0019.62,0013.85
2021-08-18 23:45:00,,0822.4,5.01,0.00,28.9,27.1,00.0,37.9,30.7,24.0,0018.65,0013.84
2021-08-18 23:46:00,,0822.4,5.01,0.00,28.9,27.5,00.0,37.9,30.8,23.7,0018.48,0013.83
2021-08-18 23:47:00,,0822.4,5.00,0.00,29.0,27.8,00.0,37.9,30.9,23.4,0018.57,0013.90
2021-08-18 23:48:00,,0822.3,5.00,0.00,29.0,26.6,00.0,37.9,30.5,23.7,0018.55,0013.92
2021-08-18 23:49:00,,0822.3,4.99,0.00,28.8,25.5,00.0,37.9,30.1,23.8,0018.54,0013.99
2021-08-18 23:50:00,,0822.3,5.01,0.00,28.7,25.8,00.0,37.9,30.2,24.0,0018.73,0013.98
2021-08-18 23:51:00,,0822.3,5.00,0.00,28.7,26.2,00.0,37.9,30.3,23.9,0019.18,0014.04
2021-08-18 23:52:00,,0822.4,5.00,0.00,28.8,26.7,00.0,37.9,30.5,23.8,0019.51,0014.11
2021-08-18 23:53:00,,0822.4,5.00,0.00,28.8,27.1,00.0,37.9,30.6,24.3,0019.69,0014.11
2021-08-18 23:54:00,,0822.4,5.01,0.00,28.9,27.5,00.0,37.9,30.8,24.1,0019.65,0014.13
2021-08-18 23:55:00,,0822.4,4.98,0.00,28.9,27.7,00.0,37.9,30.8,23.7,0019.64,0014.13
2021-08-18 23:56:00,,0822.3,5.01,0.00,28.9,26.6,00.0,37.9,30.5,23.6,0019.72,0014.17
2021-08-18 23:57:00,,0822.4,5.00,0.00,28.8,25.5,00.0,37.9,30.2,23.7,0019.71,0014.17
2021-08-18 23:58:00,,0822.4,4.99,0.00,28.7,25.7,00.0,37.9,30.2,24.0,0020.54,0014.18
2021-08-18 23:59:00,,0822.3,5.00,0.00,28.7,26.1,00.0,37.8,30.3,24.2,0021.24,0014.17
